Orbital Elements at Epoch 2459000.5 (2020-May-31.0) TDB
Reference: JPL 13 (heliocentric ecliptic J2000)
Element | Value | Uncertainty (1-sigma) | Units |
e | .0672746302097379 | 6.889e-08 | |
a | 2.791600912451919 | 3.1873e-08 | au |
q | 2.60379699337355 | 1.906e-07 | au |
i | 4.451315758933568 | 8.2526e-06 | deg |
node | 168.7866652111064 | 7.1855e-05 | deg |
peri | 156.6237087684132 | 8.6114e-05 | deg |
M | 161.9508793766171 | 4.7994e-05 | deg |
tp | 2458234.093403575524 (2018-Apr-25.59340358) | 0.00022741 | TDB |
period | 1703.642337570706 4.66 | 2.9177e-05 7.988e-08 | d yr |
n | .2113119591247884 | 3.619e-09 | deg/d |
Q | 2.979404831530289 | 3.4018e-08 | au |
|
| | Orbit Determination Parameters
Additional Information
|